Regional Weather Roundup
Issued by NWS

Home | Current Version | Previous Version | Text Only | Print | Product List | Glossary On
Versions: 1 2 3 4 5 6 7 8 9 10 11 12 13 14 15 16 17 18 19 20 21 22 23 24 25 26 27 28 29 30 31 32 33 34 35 36 37 38 39 40 41 42 43 44 45 46 47 48 49 50
271
ASUS42 KKEY 190710
RWRKEY

FLORIDA REGIONAL WEATHER ROUNDUP FOR THE FLORIDA KEYS
NATIONAL WEATHER SERVICE KEY WEST FLORIDA
200 AM EST THU JAN 19 2017

...SOUTH FLORIDA AND THE KEYS...

CITY           SKY/WX    TMP DP  RH WIND       PRES   REMARKS
FORT MYERS     CLEAR     62  60  93 CALM      30.07F
SW REGIONAL AP CLEAR     61  58  90 CALM      30.08F
NAPLES         CLEAR     62  59  90 CALM      30.07F
MIAMI          CLEAR     68  60  75 SW3       30.08F
WEST KENDALL   CLEAR     63  59  87 CALM      30.08F
HOMESTEAD      MOCLDY    65  65  99 CALM      30.08S
MARATHON       CLEAR     70  65  84 CALM      30.07F
BOCA CHICA NAS CLEAR     68  65  90 NE3       30.08F
KEY WEST INTL  NOT AVBL

...INTERNATIONAL WEATHER...

CITY           SKY/WX    TMP DP  RH WIND       PRES   REMARKS
NASSAU BAHAMAS NOT AVBL
CANCUN MEXICO  CLEAR     73  68  83 E6        30.04
COZUMEL MEXICO PTCLDY    68  68 100 CALM      30.01

ADJACENT COASTAL WATERS...

STATION/POSITION TIME  SKY/WX   TEMP    WIND        PRES    WAVE
                                AIR SEA DIR/SP/G            HT/PER
                 (UTC)          (F)     (DEG/KT/KT) (MB)    (FT/S)
PULASKI SHOAL LI 0700            75     140/  6/  7 1018.2F
SAND KEY         0650            75     120/  6/  8 1019.1F
LONG KEY         0600            73 74   30/  3/  4 1019.0F
MOLASSES REEF    NOT AVBL
FOWEY ROCKS      0700            71 75  280/  8/  9 1019.0F

$$




USA.gov is the U.S. government's official web portal to all federal, state and local government web resources and services.